EW2327 Weather Reports


time (UTC)temp
C
wind
direction
speed
KPH
gust
KPH
rain 1hr
cm
rain 24hr
cm
rain mn
cm
humidity
%
barometer
mb
20260506124530 23 80 1.6 4.8 0.00 0.00 0.00 89 1004.9
20260506123030 23 169 0.0 4.8 0.00 0.00 0.00 89 1004.8
20260506121527 23 169 0.0 1.6 0.00 0.00 0.00 89 1005.0
20260506120038 23 169 0.0 3.2 0.00 0.00 0.00 89 1004.9
20260506114523 23 169 0.0 3.2 0.00 0.00 0.00 89 1004.7
20260506113029 23 169 0.0 8.0 0.00 0.00 0.00 89 1004.8
20260506111520 23 168 0.0 8.0 0.00 0.00 0.00 89 1004.7
20260506110020 23 168 1.6 8.0 0.00 0.00 0.00 89 1004.6
20260506104520 23 141 1.6 8.0 0.00 0.00 0.00 89 1004.4
20260506103018 23 169 3.2 8.0 0.00 0.00 0.00 89 1004.3
20260506101519 23 149 4.8 11.3 0.00 0.00 0.00 89 1004.2
20260506100018 23 200 3.2 8.0 0.00 0.00 0.00 88 1004.2
20260506094520 23 186 4.8 17.7 0.00 0.00 0.00 88 1004.1
20260506093018 23 167 4.8 12.9 0.00 0.00 0.00 88 1003.9
20260506091518 23 172 3.2 14.5 0.00 0.00 0.00 88 1003.8
20260506090019 23 183 4.8 8.0 0.00 0.00 0.00 88 1003.8
20260506084515 23 167 4.8 12.9 0.00 0.00 0.00 88 1003.7
20260506083015 23 197 6.4 19.3 0.00 0.00 0.00 88 1003.7
20260506081513 23 176 4.8 22.5 0.00 0.00 0.00 88 1003.7
20260506073007 23 175 4.8 16.1 0.00 0.00 0.00 88 1004.1
20260506071505 23 166 8.0 16.1 0.00 0.00 0.00 87 1004.4
20260506061603 23 182 6.4 14.5 0.00 0.00 0.00 86 1004.4
20260506050106 23 183 8.0 14.5 0.00 0.00 0.00 85 1004.6
20260506044552 24 156 8.0 17.7 0.00 0.00 0.00 85 1004.6
20260506043054 24 217 6.4 16.1 0.00 0.00 0.00 85 1004.5
20260506041550 24 192 3.2 12.9 0.00 0.00 0.00 84 1004.3
20260506040051 24 156 4.8 12.9 0.00 0.00 0.00 84 1004.2
20260506034550 24 168 4.8 12.9 0.00 0.00 0.00 84 1004.0
20260506033049 24 176 4.8 12.9 0.00 0.00 0.00 83 1003.9
20260506031550 24 141 4.8 11.3 0.00 0.00 0.00 83 1003.6
20260506030052 25 157 4.8 11.3 0.00 0.00 0.00 82 1003.4
20260506024554 25 132 4.8 11.3 0.00 0.00 0.00 81 1003.2
20260506023045 25 153 4.8 9.7 0.00 0.00 0.00 81 1003.0
20260506021558 25 112 4.8 11.3 0.00 0.00 0.00 80 1002.7
20260506020044 25 187 3.2 8.0 0.00 0.00 0.00 79 1002.4
20260506014544 25 190 3.2 9.7 0.00 0.00 0.00 79 1002.2
20260506013053 26 178 3.2 6.4 0.00 0.00 0.00 78 1002.1
20260506011542 26 176 0.0 4.8 0.00 0.00 0.00 77 1002.3
20260506010040 26 176 1.6 4.8 0.00 0.00 0.00 77 1002.2
20260506004539 26 176 0.0 9.7 0.00 0.00 0.00 77 1002.2
20260506003038 27 171 4.8 6.4 0.00 0.00 0.00 77 1002.0
20260506001541 27 155 4.8 11.3 0.00 0.00 0.00 76 1002.1
20260506000040 27 155 3.2 12.9 0.00 0.00 0.00 76 1001.9
20260505234536 27 175 4.8 12.9 0.00 0.00 0.00 76 1001.7
20260505233038 27 146 4.8 12.9 0.00 0.00 0.00 76 1001.9
20260505231540 27 177 6.4 16.1 0.00 0.00 0.00 75 1001.8
20260505230037 27 194 3.2 12.9 0.00 0.00 0.00 76 1001.7
20260505224536 27 179 4.8 17.7 0.00 0.00 0.00 76 1001.6
20260505223035 27 122 6.4 16.1 0.00 0.00 0.00 76 1001.6
20260505221532 27 169 6.4 17.7 0.00 0.00 0.00 76 1001.5
20260505220034 27 133 8.0 20.9 0.00 0.00 0.00 76 1001.6
20260505214541 27 202 6.4 20.9 0.00 0.00 0.00 76 1001.8
20260505213025 27 196 9.7 29.0 0.00 0.00 0.00 77 1002.2
20260505211524 27 142 8.0 16.1 0.00 0.00 0.00 78 1002.2
20260505210021 27 199 6.4 16.1 0.00 0.00 0.00 78 1002.4
20260505204518 27 178 8.0 17.7 0.00 0.00 0.00 79 1002.7
20260505203015 27 190 8.0 19.3 0.00 0.00 0.00 79 1003.1
20260505201514 27 157 8.0 17.7 0.00 0.00 0.00 80 1003.2
20260505200013 26 203 9.7 19.3 0.00 0.00 0.00 80 1003.4
20260505194511 26 193 9.7 19.3 0.00 0.00 0.00 81 1003.4
20260505193010 26 193 11.3 19.3 0.00 0.00 0.00 81 1003.6
20260505191507 26 190 6.4 17.7 0.00 0.00 0.00 83 1003.8
20260505190007 26 206 9.7 17.7 0.00 0.00 0.00 83 1003.9
20260505184505 26 126 9.7 14.5 0.00 0.00 0.00 83 1004.0
20260505183107 25 141 6.4 20.9 0.00 0.00 0.00 84 1004.1
20260505181559 25 156 4.8 19.3 0.00 0.00 0.00 85 1004.3
20260505180058 25 205 4.8 16.1 0.00 0.00 0.00 86 1004.4
20260505174559 23 190 8.0 14.5 0.00 0.00 0.00 87 1004.8
20260505173050 23 210 4.8 11.3 0.00 0.00 0.00 88 1005.0
20260505171549 23 177 4.8 25.7 0.00 0.00 0.00 88 1004.9
20260505170044 22 157 1.6 12.9 0.00 0.00 0.00 88 1005.0
20260505164541 22 187 4.8 16.1 0.00 0.00 0.00 88 1005.0
20260505163039 22 205 3.2 16.1 0.00 0.00 0.00 89 1005.1
20260505161534 22 185 3.2 8.0 0.00 0.00 0.00 89 1005.1
20260505153026 21 180 3.2 16.1 0.00 0.00 0.00 89 1005.0
20260505151527 21 202 6.4 17.7 0.00 0.00 0.00 89 1005.0